This is the latest recevied weather packets stored in our database for station/object KC2G. If no packets are shown the sender has not sent any weather packets the latest 10 day(s).
| Time | Temp. | Humidity | Pressure | Rain* | Wind** | Luminosity | Snow |
|---|---|---|---|---|---|---|---|
| 1777453488 | 10.56° C | 72% | 1016.1 hPa | 0 mm | 0 m/s | - | - |
| 1777453255 | 10.56° C | 74% | 1016.4 hPa | 0 mm | 0 m/s | - | - |
| 1777452355 | 10.56° C | 72% | 1016.1 hPa | 0 mm | 0 m/s | - | - |
| 1777451551 | 10.56° C | 71% | 1016.1 hPa | 0 mm | 0 m/s | - | - |
| 1777451514 | 10.56° C | 71% | 1016.1 hPa | 0 mm | 0 m/s | - | - |
| 1777451455 | 10.56° C | 71% | 1016.1 hPa | 0 mm | 0 m/s | - | - |
| 1777450555 | 10.56° C | 72% | 1016.1 hPa | 0 mm | 0 m/s | - | - |
| 1777449655 | 10.56° C | 71% | 1016 hPa | 0 mm | 0 m/s | - | - |
| 1777449633 | 10.56° C | 71% | 1016.2 hPa | 0 mm | 0 m/s | - | - |
| 1777448755 | 10.56° C | 70% | 1016.2 hPa | 0 mm | 0 m/s | - | - |
| 1777447856 | 10.56° C | 71% | 1016.2 hPa | 0 mm | 0 m/s | - | - |
| 1777446955 | 10.56° C | 69% | 1016.2 hPa | 0 mm | 0 m/s | - | - |
| 1777446055 | 11.11° C | 67% | 1016.3 hPa | 0 mm | 0 m/s | - | - |
| 1777445154 | 11.11° C | 64% | 1016.5 hPa | 0 mm | 0 m/s | - | - |
| 1777444255 | 11.11° C | 65% | 1016.6 hPa | 0 mm | 0 m/s | - | - |
| 1777443355 | 11.11° C | 63% | 1016.9 hPa | 0 mm | 0 m/s | - | - |
| 1777442617 | 11.11° C | 63% | 1017.2 hPa | 0 mm | 0 m/s | - | - |
| 1777442455 | 11.11° C | 63% | 1017.2 hPa | 0 mm | 0 m/s | - | - |
| 1777441555 | 11.67° C | 62% | 1017.3 hPa | 0 mm | 0 m/s | - | - |
| 1777440655 | 11.67° C | 61% | 1017.4 hPa | 0 mm | 0 m/s | - | - |
| 1777439840 | 11.67° C | 61% | 1017.5 hPa | 0 mm | 0.45 m/s, 129° | - | - |
| 1777439755 | 11.67° C | 61% | 1017.5 hPa | 0 mm | 0.45 m/s, 129° | - | - |
| 1777438855 | 11.67° C | 65% | 1017.8 hPa | 0 mm | 0.45 m/s, 151° | - | - |
| 1777437955 | 11.67° C | 65% | 1018 hPa | 0 mm | 0 m/s | - | - |
| 1777437056 | 12.22° C | 65% | 1017.7 hPa | 0 mm | 0.45 m/s, 149° | - | - |
* Rain latest hour (hover to see other rain measurements)
** Current wind speed in m/s (hover to see current wind gust speed)